FW8607 Weather Reports


time (UTC)temp
C
wind
direction
speed
KPH
gust
KPH
rain 1hr
cm
rain 24hr
cm
rain mn
cm
humidity
%
barometer
mb
20260509063021 14 0.0 0.0 0.00 0.00 0.00 93 1013.9
20260509060021 14 248 1.6 4.8 0.00 0.00 0.00 93 1014.0
20260509053041 15 248 1.6 4.8 0.00 0.00 0.00 92 1014.1
20260509050022 15 248 3.2 4.8 0.00 0.00 0.00 92 1014.0
20260509043041 15 248 4.8 9.7 0.00 0.00 0.00 91 1013.7
20260509040021 15 248 6.4 11.3 0.00 0.00 0.00 89 1013.5
20260509033021 16 270 6.4 12.9 0.00 0.00 0.00 87 1013.1
20260509030020 17 270 8.0 12.9 0.00 0.00 0.00 83 1013.0
20260509023020 18 270 9.7 12.9 0.00 0.00 0.00 78 1012.9
20260509020020 20 248 9.7 16.1 0.00 0.00 0.00 73 1012.7
20260509013020 21 248 8.0 17.7 0.00 0.00 0.00 70 1012.8
20260509010021 22 248 9.7 17.7 0.00 0.00 0.00 68 1012.7
20260509003020 22 248 11.3 22.5 0.00 0.00 0.00 68 1012.6
20260509000042 22 248 11.3 22.5 0.00 0.00 0.00 66 1012.8
20260508233020 22 248 12.9 29.0 0.00 0.00 0.00 67 1012.9
20260508230020 23 248 14.5 25.7 0.00 0.00 0.00 65 1013.3
20260508223021 23 248 17.7 32.2 0.00 0.00 0.00 64 1013.4
20260508213020 26 248 14.5 25.7 0.00 0.00 0.00 58 1013.9
20260508210020 25 293 11.3 24.1 0.00 0.00 0.00 59 1014.0
20260508203019 25 293 12.9 22.5 0.00 0.00 0.00 61 1014.1
20260508200118 25 338 9.7 20.9 0.00 0.00 0.00 60 1014.2
20260508193118 23 338 9.7 19.3 0.00 0.00 0.00 63 1014.5
20260508190118 22 338 9.7 22.5 0.00 0.00 0.00 69 1014.9
20260508183118 21 338 11.3 20.9 0.00 0.00 0.00 74 1015.1
20260508180117 19 315 6.4 16.1 0.00 0.00 0.00 78 1015.1
20260508173139 17 270 3.2 9.7 0.00 0.00 0.00 89 1015.1
20260508170119 16 248 3.2 11.3 0.00 0.00 0.00 94 1015.0
20260508163137 14 338 3.2 8.0 0.00 0.00 0.00 96 1015.2
20260508160117 14 0 1.6 6.4 0.00 0.00 0.00 96 1015.2
20260508153117 13 338 3.2 6.4 0.00 0.00 0.00 95 1015.3
20260508150138 13 293 1.6 4.8 0.00 0.00 0.00 95 1015.4
20260508143117 13 293 1.6 4.8 0.00 0.00 0.00 95 1015.4
20260508140137 13 315 1.6 6.4 0.00 0.00 0.00 95 1015.2
20260508133118 13 203 1.6 4.8 0.00 0.00 0.00 95 1015.0
20260508130117 13 68 3.2 6.4 0.00 0.00 0.00 95 1015.0
20260508123117 13 0.0 4.8 0.00 0.00 0.00 95 1015.0
20260508120116 13 0.0 4.8 0.00 0.00 0.00 95 1014.9
20260508113116 13 90 3.2 6.4 0.00 0.00 0.00 95 1014.8
20260508110116 13 113 3.2 4.8 0.00 0.00 0.00 94 1014.8
20260508103116 13 135 1.6 6.4 0.00 0.00 0.00 94 1015.1
20260508100116 14 113 1.6 6.4 0.00 0.00 0.00 94 1015.3
20260508093116 14 90 1.6 4.8 0.00 0.00 0.00 94 1015.1
20260508090116 14 158 1.6 9.7 0.00 0.00 0.00 94 1015.2
20260508083116 14 0.0 4.8 0.00 0.00 0.00 93 1015.5
20260508080117 14 0.0 0.0 0.00 0.00 0.00 93 1015.7
20260508073116 14 0.0 6.4 0.00 0.00 0.00 93 1015.7
20260508070116 14 0.0 3.2 0.00 0.00 0.00 93 1016.0